Carlsbad, NM

12:55 AM MST on December 11, 2017 (GMT -0700)
Cavern City

Weather History for KCNM - July, 2013

Change the Weather History Date:

Thursday, July 4, 2013

  Actual Average Record
Temperature  
Mean Temperature 80 °F -  
Max Temperature 96 °F 96 °F 106 °F (1957)
Min Temperature 66 °F 68 °F 60 °F (1985)
Cooling Degree Days 16    
Growing Degree Days 30 (Base 50)    
Moisture  
Dew Point 46 °F    
Average Humidity 30    
Maximum Humidity 45    
Minimum Humidity 19    
Precipitation  
Precipitation 0.00 in - - ()
Sea Level Pressure  
Sea Level Pressure 29.76 in    
Wind  
Wind Speed 9 mph (SSE)    
Max Wind Speed 18 mph    
Max Gust Speed 26 mph    
Visibility 10 miles    
Events      
Averages and records for this station are not official NWS values.
T = Trace of Precipitation, MM = Missing Value Source: NWS Daily Summary

Daily Weather History Graph

Daily Weather History Graph

Search for Another Location

Airport or City:

Trip Planner

Search our weather history database for the weather conditions in past years. The results will help you decide how hot, cold, wet, or windy it might be!

Date:

Astronomy

Jul. 04, 2013 Rise Set
Actual Time 5:55 AM MDT 8:07 PM MDT
Civil Twilight 5:26 AM MDT 8:35 PM MDT
Nautical Twilight 4:52 AM MDT 9:10 PM MDT
Astronomical Twilight 4:15 AM MDT 9:47 PM MDT
Moon 3:09 AM MDT (7/4) 5:17 PM MDT (7/4)
Length of Visible Light 15h 08m
Length of Day
14h 12m
Waning Crescent, 11% of the Moon is Illuminated
Jul 4
Waning Crescent
Jul 8
New
Jul 15
First Quarter
Jul 22
Full
Jul 29
Last Quarter

Hourly Weather History & Observations

Time (MDT) Temp. Dew Point Humidity Pressure Visibility Wind Dir Wind Speed Gust Speed Precip Events Conditions
12:53 AM 73.9 °F 43.0 °F 33% 29.78 in 10.0 mi SSE 8.1 mph - N/A   Clear
1:53 AM 73.9 °F 42.1 °F 32% 29.77 in 10.0 mi South 6.9 mph - N/A   Clear
2:53 AM 70.0 °F 45.0 °F 41% 29.77 in 10.0 mi South 4.6 mph - N/A   Clear
3:53 AM 70.0 °F 44.1 °F 39% 29.76 in 10.0 mi SSE 8.1 mph - N/A   Clear
4:53 AM 69.1 °F 44.1 °F 40% 29.76 in 10.0 mi SSE 6.9 mph - N/A   Clear
5:53 AM 66.0 °F 44.1 °F 45% 29.77 in 10.0 mi South 8.1 mph - N/A   Clear
6:53 AM 68.0 °F 45.0 °F 43% 29.76 in 10.0 mi SE 8.1 mph - N/A   Clear
7:53 AM 73.0 °F 46.9 °F 39% 29.80 in 9.0 mi ESE 11.5 mph - N/A   Clear
8:53 AM 75.9 °F 48.0 °F 37% 29.82 in 9.0 mi East 11.5 mph - N/A   Clear
9:53 AM 81.0 °F 46.9 °F 30% 29.81 in 10.0 mi SE 6.9 mph - N/A   Clear
10:53 AM 86.0 °F 46.0 °F 25% 29.80 in 10.0 mi SSE 10.4 mph - N/A   Clear
11:53 AM 89.1 °F 46.0 °F 22% 29.78 in 10.0 mi SE 5.8 mph - N/A   Clear
12:53 PM 91.0 °F 46.9 °F 22% 29.77 in 10.0 mi SE 8.1 mph 20.7 mph N/A   Clear
1:53 PM 93.0 °F 46.0 °F 20% 29.74 in 10.0 mi ESE 17.3 mph 26.5 mph N/A   Clear
2:53 PM 95.0 °F 46.0 °F 19% 29.72 in 10.0 mi South 11.5 mph - N/A   Clear
3:53 PM 95.0 °F 46.0 °F 19% 29.70 in 10.0 mi SSE 10.4 mph 20.7 mph N/A   Clear
4:53 PM 93.9 °F 46.9 °F 20% 29.69 in 10.0 mi SSE 16.1 mph 24.2 mph N/A   Clear
5:53 PM 93.0 °F 46.9 °F 20% 29.69 in 10.0 mi SE 16.1 mph 20.7 mph N/A   Clear
6:53 PM 90.0 °F 46.9 °F 23% 29.71 in 10.0 mi ESE 18.4 mph 25.3 mph N/A   Clear
7:53 PM 88.0 °F 46.0 °F 23% 29.72 in 10.0 mi SE 13.8 mph - N/A   Clear
8:53 PM 84.0 °F 48.0 °F 28% 29.75 in 10.0 mi SE 9.2 mph - N/A   Clear
9:53 PM 81.0 °F 48.0 °F 31% 29.77 in 10.0 mi SSE 6.9 mph - N/A   Clear
10:53 PM 79.0 °F 48.0 °F 34% 29.77 in 10.0 mi South 4.6 mph - N/A   Clear
11:53 PM 75.0 °F 48.0 °F 38% 29.78 in 10.0 mi South 4.6 mph - N/A   Clear